User: anonymous   Login
Location: Unspecified
(0.0000°N, 0.0000°E)
Time: 04:39:45
(UTC+02:00)
Language:

NATO 3D Rocket - Orbit

View from above orbital plane
View from above orbital plane
View from above satellite
View from above satellite

Ground track
Ground track

The orbit data is extracted from the following two-line orbital elements,

1 15392U 84115B   18169.83721930  .00000205  00000-0  42567-4 0  9992
2 15392  21.4924  75.6699 1034463 141.7504 226.1021 12.45562934529774
Epoch (UTC): 18 June 2018 20:05:35
Eccentricity: 0.1034463
inclination: 21.4924°
perigee height: 670 km
apogee height: 2296 km
right ascension of ascending node: 75.6699°
argument of perigee: 141.7504°
revolutions per day: 12.45562934
mean anomaly at epoch: 226.1021°
orbit number at epoch: 52977

The dashed part of the orbit path shows where the satellite is in the earth's shadow,  

DLR